This is the latest recevied weather packets stored in our database for station/object DL2GPS-3. If no packets are shown the sender has not sent any weather packets the latest 10 day(s).
| Time | Temp. | Humidity | Pressure | Rain* | Wind** | Luminosity | Snow |
|---|---|---|---|---|---|---|---|
| 1788486800 | 13.89° C | 99% | 1025.5 hPa | - | - | - | - |
| 1788486195 | 13.89° C | 97% | 1025.6 hPa | - | - | - | - |
| 1788485590 | 13.89° C | 96% | 1025.7 hPa | - | - | - | - |
| 1788484984 | 14.44° C | 96% | 1025.8 hPa | - | - | - | - |
| 1788484379 | 14.44° C | 94% | 1025.8 hPa | - | - | - | - |
| 1788483774 | 13.89° C | 92% | 1025.9 hPa | - | - | - | - |
| 1788483169 | 14.44° C | 94% | 1025.8 hPa | - | - | - | - |
| 1788482564 | 14.44° C | 91% | 1026.1 hPa | - | - | - | - |
| 1788481959 | 14.44° C | 91% | 1026.1 hPa | - | - | - | - |
| 1788481354 | 14.44° C | 90% | 1026.2 hPa | - | - | - | - |
| 1788480749 | 15° C | 89% | 1026.4 hPa | - | - | - | - |
| 1788480143 | 15° C | 85% | 1026.4 hPa | - | - | - | - |
| 1788479538 | 15.56° C | 86% | 1026.3 hPa | - | - | - | - |
| 1788478933 | 15.56° C | 84% | 1026.4 hPa | - | - | - | - |
| 1788478328 | 15.56° C | 84% | 1026.4 hPa | - | - | - | - |
| 1788477722 | 16.11° C | 83% | 1026.4 hPa | - | - | - | - |
| 1788477117 | 16.11° C | 82% | 1026.4 hPa | - | - | - | - |
| 1788476512 | 16.11° C | 80% | 1026.4 hPa | - | - | - | - |
| 1788475907 | 16.11° C | 81% | 1026.5 hPa | - | - | - | - |
| 1788475301 | 16.67° C | 80% | 1026.5 hPa | - | - | - | - |
| 1788474696 | 16.11° C | 81% | 1026.6 hPa | - | - | - | - |
| 1788474091 | 16.67° C | 80% | 1026.6 hPa | - | - | - | - |
| 1788473486 | 16.67° C | 80% | 1026.4 hPa | - | - | - | - |
| 1788472880 | 16.67° C | 79% | 1026.3 hPa | - | - | - | - |
| 1788472275 | 16.67° C | 78% | 1026.4 hPa | - | - | - | - |
* Rain since midnight (hover to see other rain measurements)
** Current wind speed in m/s (hover to see current wind gust speed)